Flag for Germany Weather past 2 weeks in Vaihingen an der Enz, Baden-Württemberg, Germany

Now
34 °F

Passing clouds.


Feels Like: 28 °F
Forecast: 27 / 35 °F
Wind: 7 mph from Southwest

Location: Stuttgart-Echterdingen

Current Time: Jan 31, 2015 at 8:47:51 PM

Latest Report: Jan 31, 2015 at 8:20 PM


Visibility: N/A

Pressure: 29.12 "Hg

Humidity: 93%

Dew point: 32 °F

Location of Vaihingen an der EnzLocation

Historic Weather in Vaihingen an der Enz — Graph

°F

Vaihingen an der Enz temperature yesterday

Maximum temperature yesterday: 37 °F (at 12:20 AM)
Minimum temperature yesterday: 30 °F (at 9:50 PM)
Average temperature yesterday: 34 °F

Past Weeks' High & Low Weather Summary

 TemperatureHumidityPressure
High43 °F (Jan 16, 7:20 PM)100% (Jan 17, 8:50 PM)30.39 "Hg (Jan 17, 8:50 PM)
Low27 °F (Jan 18, 6:20 AM)65% (Jan 29, 12:20 PM)28.74 "Hg (Jan 30, 1:20 AM)
Average34 °F88%29.84 "Hg
* Reported Jan 16 7:20 PM — Jan 31 7:20 PM, Vaihingen an der Enz, Weather by CustomWeather, © 2014

Note: Actual official high and low records may vary slightly from our data, if they occured in-between our weather recording intervals... More about our weather records

Advertising

Vaihingen an der Enz weather history for previous 24 hours

 ConditionsComfort  
Time TempWeatherWind HumidityBarometerVisibility
7:20 PM
Jan 31
34 °FPartly cloudy.6 mph93%29.12 "Hg6 mi
6:50 PM34 °FSnow. Partly cloudy.5 mph93%29.12 "Hg1 mi
6:20 PM34 °FLight snow. Partly cloudy.3 mph93%29.09 "Hg3 mi
5:50 PM34 °FSnow. Passing clouds.6 mph87%29.09 "Hg2 mi
5:20 PM36 °FSnow flurries. Passing clouds.7 mph75%29.09 "Hg4 mi
4:20 PM37 °FBroken clouds.5 mph65%29.06 "HgN/A
3:50 PM37 °FBroken clouds.5 mph65%29.06 "HgN/A
3:20 PM37 °FBroken clouds.6 mph65%29.06 "HgN/A
2:50 PM37 °FPartly sunny.5 mph65%29.06 "HgN/A
2:20 PM37 °FPartly sunny.6 mph65%29.06 "HgN/A
1:50 PM36 °FPartly sunny.9 mph70%29.06 "HgN/A
1:20 PM36 °FBroken clouds.9 mph75%29.06 "HgN/A
12:50 PM36 °FBroken clouds.8 mph70%29.06 "HgN/A
12:20 PM36 °FPartly sunny.8 mph70%29.06 "HgN/A
11:50 AM36 °FBroken clouds.8 mph70%29.06 "HgN/A
11:20 AM36 °FBroken clouds.9 mph70%29.06 "HgN/A
10:50 AM34 °FBroken clouds.9 mph75%29.06 "HgN/A
10:20 AM34 °FPartly sunny.9 mph75%29.03 "HgN/A
9:50 AM32 °FPartly sunny.3 mph87%29.03 "HgN/A
9:20 AM32 °FPartly sunny.5 mph80%29.03 "HgN/A
8:50 AM32 °FScattered clouds.5 mph87%29.03 "HgN/A
8:20 AM32 °FScattered clouds.5 mph80%29.03 "HgN/A
7:50 AM32 °FPassing clouds.5 mph87%29.03 "HgN/A
7:20 AM30 °FPartly cloudy.3 mph86%29.00 "HgN/A
6:50 AM32 °FPartly cloudy.3 mph87%29.00 "HgN/A
6:20 AM32 °FPassing clouds.5 mph87%29.00 "HgN/A
5:50 AM32 °FPassing clouds.5 mph87%29.00 "HgN/A
5:20 AM32 °FPassing clouds.6 mph87%29.00 "HgN/A
4:20 AM32 °FPassing clouds.5 mph87%29.00 "HgN/A
3:50 AM32 °FPassing clouds.5 mph87%28.97 "HgN/A
3:20 AM32 °FPassing clouds.2 mph87%28.97 "HgN/A
2:50 AM32 °FPassing clouds.2 mph87%28.97 "HgN/A
2:20 AM32 °FPassing clouds.3 mph93%28.97 "HgN/A
1:50 AM32 °FPassing clouds.2 mph93%28.97 "HgN/A
1:20 AM30 °FPassing clouds.2 mph100%28.94 "HgN/A
12:50 AM30 °FPassing clouds.2 mph93%28.94 "HgN/A
12:20 AM30 °FPassing clouds.2 mph93%28.94 "HgN/A
11:50 PM
Jan 30
32 °FPassing clouds.2 mph93%28.94 "HgN/A
11:20 PM30 °FLight snow. Passing clouds.1 mph100%28.94 "HgN/A
10:20 PM30 °FLight snow. Passing clouds.2 mph100%28.91 "HgN/A
9:50 PM30 °FLight snow. Passing clouds.1 mph100%28.91 "Hg4 mi
9:20 PM32 °FSnow. Passing clouds.2 mph93%28.91 "Hg1 mi
8:50 PM32 °FSnow. Passing clouds.6 mph93%28.88 "Hg1 mi
8:20 PM32 °FSnow. Mostly cloudy.12 mph93%28.88 "Hg2 mi
Weather by CustomWeather, © 2014

See weather overviewHow to use our weather pages